Location: Vancouver
(49.2500°N, 123.1330°W)
Time: 16:50:15
(UTC-07:00)

ERS-2 - Visible Passes

Search period start: 22 July 2014 00:00
Search period end: 01 August 2014 00:00
Orbit: 532 x 537 km, 98.6° (Epoch: 22 July)

Date Brightness Start Highest point End Pass type
(mag) Time Alt. Az. Time Alt. Az. Time Alt. Az.
22 Jul 5.6 22:29:07 10° NNW 22:30:56 13° WNW 22:32:43 10° W visible
23 Jul 5.4 22:19:39 10° NNW 22:22:00 16° WNW 22:24:21 10° W visible
24 Jul 5.3 22:10:18 10° NNW 22:13:04 19° WNW 22:15:49 10° WSW visible
25 Jul 5.1 22:01:02 10° N 22:04:07 23° WNW 22:07:11 10° WSW visible
26 Jul 4.7 21:51:49 10° N 21:55:09 28° WNW 21:58:28 10° SW visible
27 Jul 4.2 21:42:38 10° N 21:46:10 34° WNW 21:49:41 10° SW visible
28 Jul 3.7 21:33:29 10° N 21:37:11 43° WNW 21:40:50 10° SW visible
31 Jul 5.8 22:42:43 10° NW 22:43:46 11° NW 22:44:49 10° WNW visible
